Simultaneous Nadir Overpasses (SNOs) Predictions

Prediction of SNOs near equator between AQUA and NPP Satellite Orbit:

Table of predicted SNOs near equator for the next 14.0 days since TLE Epoch: 5/7/2022
Index Date (AQUA) Time (AQUA) AQUA Lat,Lon Date (NPP) Time (NPP) NPP Lat,Lon Distance(km) Time Diff (sec)
1 05/08/2022 20:44:56 3.45,-107.25 05/08/2022 20:35:42 3.30,-108.12 97.65 554
2 05/11/2022 12:12:03 -5.38,-159.31 05/11/2022 12:02:17 -5.20,-160.06 86.13 586
3 05/14/2022 03:45:35 29.99, 143.33 05/14/2022 03:35:35 30.18, 142.32 99.70 600
4 05/16/2022 19:54:37 4.45, -94.79 05/16/2022 19:45:06 4.26, -95.62 94.67 571
5 05/19/2022 11:21:41 -6.24,-146.80 05/19/2022 11:11:41 -6.12,-147.55 83.83 600
